BAW340 EGLL-LFKF

Flight info

Callsign BAW340
Flight time 2h 0m
Altitude 35000
Route MAXIT Y803 MID UL612 OGULO DCT PIMUP DCT REKMU DCT PIGOS M622 LONSU
Aircraft A319/M-SDE3FGHIRWY/LB1

Departure

Time 2026-05-08 22:58
Airport London Heathrow Airport (EGLL)

Arrival

Time 2026-05-09 00:59
Airport Figari Sud-Corse Airport (LFKF)
Time Latitude Longitude Altitude Speed Heading
2026-05-08 22:35 51.47404 -0.48830 76 ft 0 kts 180°
2026-05-08 22:48 51.47416 -0.48830 76 ft 2 kts 180°
2026-05-08 22:48 51.47430 -0.48830 76 ft 2 kts 180°
2026-05-08 22:49 51.47446 -0.48830 76 ft 2 kts 180°
2026-05-08 22:49 51.47475 -0.48835 76 ft 2 kts 146°
2026-05-08 22:49 51.47485 -0.48852 76 ft 2 kts 112°
2026-05-08 22:50 51.47487 -0.48868 76 ft 0 kts 89°
2026-05-08 22:50 51.47487 -0.48869 76 ft 0 kts 89°
2026-05-08 22:50 51.47487 -0.48868 76 ft 0 kts 89°
2026-05-08 22:51 51.47487 -0.48861 76 ft 1 kts 89°
2026-05-08 22:51 51.47487 -0.48800 76 ft 11 kts 93°
2026-05-08 22:52 51.47489 -0.48624 76 ft 18 kts 94°
2026-05-08 22:52 51.47450 -0.48477 76 ft 13 kts 175°
2026-05-08 22:52 51.47353 -0.48474 76 ft 14 kts 179°
2026-05-08 22:52 51.47246 -0.48473 76 ft 15 kts 179°
2026-05-08 22:53 51.47134 -0.48473 76 ft 16 kts 179°
2026-05-08 22:53 51.47015 -0.48469 76 ft 17 kts 179°
2026-05-08 22:53 51.46893 -0.48470 76 ft 17 kts 178°
2026-05-08 22:53 51.46767 -0.48469 76 ft 18 kts 182°
2026-05-08 22:54 51.46658 -0.48489 76 ft 11 kts 230°
2026-05-08 22:54 51.46650 -0.48612 76 ft 12 kts 270°
2026-05-08 22:54 51.46650 -0.48700 76 ft 5 kts 263°
2026-05-08 22:54 51.46648 -0.48709 76 ft 0 kts 255°
2026-05-08 22:55 51.46648 -0.48711 76 ft 1 kts 255°
2026-05-08 22:55 51.46636 -0.48743 76 ft 5 kts 221°
2026-05-08 22:55 51.46595 -0.48770 76 ft 6 kts 200°
2026-05-08 22:55 51.46592 -0.48772 76 ft 0 kts 200°
2026-05-08 22:57 51.46590 -0.48772 76 ft 3 kts 200°
2026-05-08 22:57 51.46512 -0.48775 76 ft 20 kts 154°
2026-05-08 22:58 51.46474 -0.48502 76 ft 31 kts 89°
2026-05-08 22:58 51.46476 -0.47930 77 ft 86 kts 89°
2026-05-08 22:58 51.46482 -0.46609 104 ft 146 kts 90°
2026-05-08 22:58 51.46486 -0.44964 710 ft 147 kts 90°
2026-05-08 22:59 51.46489 -0.43342 1377 ft 149 kts 91°
2026-05-08 22:59 51.46414 -0.41720 1976 ft 151 kts 110°
2026-05-08 22:59 51.45708 -0.40395 2350 ft 168 kts 149°
2026-05-08 22:59 51.44511 -0.40021 2735 ft 189 kts 186°
2026-05-08 23:00 51.43321 -0.41052 3118 ft 211 kts 229°
2026-05-08 23:00 51.42760 -0.43307 3473 ft 234 kts 262°
2026-05-08 23:00 51.42508 -0.45946 3964 ft 250 kts 250°
2026-05-08 23:00 51.41485 -0.48243 4480 ft 262 kts 213°
2026-05-08 23:01 51.39800 -0.49161 5255 ft 263 kts 184°
2026-05-08 23:01 51.37967 -0.49392 6066 ft 269 kts 186°
2026-05-08 23:01 51.36114 -0.49880 6876 ft 275 kts 192°
2026-05-08 23:01 51.34260 -0.50673 7736 ft 278 kts 197°
2026-05-08 23:02 51.32435 -0.51653 8588 ft 281 kts 199°
2026-05-08 23:02 51.30604 -0.52735 9419 ft 285 kts 200°
2026-05-08 23:02 51.28759 -0.53864 10212 ft 288 kts 201°
2026-05-08 23:02 51.26857 -0.55035 10804 ft 298 kts 200°
2026-05-08 23:03 51.24854 -0.56101 11230 ft 313 kts 196°
2026-05-08 23:03 51.22744 -0.56925 11910 ft 317 kts 192°
2026-05-08 23:03 51.20589 -0.57627 12641 ft 319 kts 192°
2026-05-08 23:03 51.18408 -0.58328 13336 ft 322 kts 192°
2026-05-08 23:04 51.16217 -0.59032 14001 ft 325 kts 192°
2026-05-08 23:04 51.13969 -0.59755 14614 ft 330 kts 192°
2026-05-08 23:04 51.11705 -0.60484 15225 ft 334 kts 192°
2026-05-08 23:04 51.09452 -0.61210 15832 ft 337 kts 193°
2026-05-08 23:05 51.07104 -0.61845 16423 ft 341 kts 184°
2026-05-08 23:05 51.04774 -0.61399 16992 ft 346 kts 163°
2026-05-08 23:05 51.02609 -0.59669 17603 ft 350 kts 148°
2026-05-08 23:05 51.00594 -0.57509 18160 ft 354 kts 147°
2026-05-08 23:06 50.98563 -0.55284 18684 ft 358 kts 147°
2026-05-08 23:06 50.96508 -0.53048 19260 ft 360 kts 147°
2026-05-08 23:06 50.94443 -0.50820 19829 ft 362 kts 148°
2026-05-08 23:06 50.92354 -0.48582 20373 ft 364 kts 148°
2026-05-08 23:07 50.90247 -0.46337 20908 ft 367 kts 148°
2026-05-08 23:07 50.88144 -0.44107 21428 ft 369 kts 148°
2026-05-08 23:07 50.86002 -0.41848 21942 ft 371 kts 148°
2026-05-08 23:07 50.83851 -0.39580 22447 ft 373 kts 148°
2026-05-08 23:08 50.81683 -0.37291 22948 ft 375 kts 148°
2026-05-08 23:08 50.79539 -0.35027 23424 ft 377 kts 148°
2026-05-08 23:08 50.77346 -0.32711 23906 ft 379 kts 148°
2026-05-08 23:08 50.75149 -0.30395 24354 ft 382 kts 148°
2026-05-08 23:09 50.72945 -0.28075 24778 ft 384 kts 148°
2026-05-08 23:09 50.70728 -0.25744 25209 ft 387 kts 148°
2026-05-08 23:09 50.68501 -0.23405 25629 ft 390 kts 148°
2026-05-08 23:09 50.66232 -0.21025 26048 ft 392 kts 148°
2026-05-08 23:10 50.63972 -0.18657 26456 ft 395 kts 148°
2026-05-08 23:10 50.61664 -0.16242 26858 ft 397 kts 148°
2026-05-08 23:10 50.59357 -0.13829 27254 ft 400 kts 148°
2026-05-08 23:10 50.57045 -0.11413 27629 ft 402 kts 148°
2026-05-08 23:11 50.54732 -0.08998 27992 ft 405 kts 148°
2026-05-08 23:11 50.52379 -0.06545 28352 ft 407 kts 148°
2026-05-08 23:11 50.50033 -0.04102 28707 ft 409 kts 148°
2026-05-08 23:11 50.47648 -0.01626 29059 ft 412 kts 148°
2026-05-08 23:12 50.29156 0.17490 31210 ft 415 kts 147°
2026-05-08 23:12 49.95101 0.52346 33165 ft 421 kts 147°
2026-05-08 23:12 49.59392 0.91044 34844 ft 427 kts 138°
2026-05-08 23:12 49.57385 0.94437 34974 ft 430 kts 128°
2026-05-08 23:13 49.53486 1.01493 35016 ft 438 kts 135°
2026-05-08 23:13 49.48915 1.07872 35025 ft 450 kts 141°
2026-05-08 23:14 49.44016 1.14006 35027 ft 461 kts 142°
2026-05-08 23:14 49.39011 1.20157 35027 ft 467 kts 142°
2026-05-08 23:15 49.33960 1.26355 35028 ft 466 kts 142°
2026-05-08 23:15 49.28923 1.32524 35026 ft 463 kts 142°
2026-05-08 23:16 49.23880 1.38696 35023 ft 465 kts 142°
2026-05-08 23:16 49.18848 1.44833 35018 ft 467 kts 141°
2026-05-08 23:17 49.13775 1.51001 35016 ft 469 kts 141°
2026-05-08 23:17 49.08691 1.57180 35016 ft 469 kts 141°
2026-05-08 23:18 49.03607 1.63338 35012 ft 468 kts 141°
2026-05-08 23:18 48.98486 1.69534 35012 ft 468 kts 142°
2026-05-08 23:19 48.93410 1.75669 35013 ft 469 kts 142°
2026-05-08 23:19 48.88309 1.81800 35011 ft 469 kts 142°
2026-05-08 23:20 48.83184 1.87904 35013 ft 470 kts 142°
2026-05-08 23:20 48.78059 1.94009 35016 ft 470 kts 142°
2026-05-08 23:21 48.72933 2.00113 35017 ft 470 kts 142°
2026-05-08 23:21 48.67794 2.06225 35019 ft 470 kts 142°
2026-05-08 23:22 48.62667 2.12307 35022 ft 470 kts 142°
2026-05-08 23:22 48.57579 2.18442 35020 ft 471 kts 139°
2026-05-08 23:23 48.52834 2.25236 35010 ft 471 kts 134°
2026-05-08 23:23 48.48241 2.32231 35005 ft 472 kts 135°
2026-05-08 23:24 48.43638 2.39218 35002 ft 472 kts 135°
2026-05-08 23:24 48.39024 2.46192 34998 ft 471 kts 135°
2026-05-08 23:25 48.34396 2.53112 34998 ft 472 kts 137°
2026-05-08 23:25 48.29417 2.59431 35000 ft 471 kts 143°
2026-05-08 23:26 48.24072 2.64985 34996 ft 471 kts 146°
2026-05-08 23:26 48.18644 2.70555 34993 ft 471 kts 145°
2026-05-08 23:27 48.13353 2.76231 34992 ft 471 kts 145°
2026-05-08 23:27 48.08031 2.81909 34995 ft 470 kts 145°
2026-05-08 23:28 48.02729 2.87553 34990 ft 469 kts 145°
2026-05-08 23:28 47.97449 2.93157 34987 ft 468 kts 145°
2026-05-08 23:29 47.92144 2.98777 34985 ft 469 kts 145°
2026-05-08 23:29 47.86826 3.04380 34988 ft 470 kts 145°
2026-05-08 23:30 47.81467 3.10002 34987 ft 471 kts 146°
2026-05-08 23:30 47.76118 3.15616 34988 ft 471 kts 146°
2026-05-08 23:31 47.70817 3.21177 34988 ft 469 kts 146°
2026-05-08 23:31 47.65485 3.26758 34984 ft 469 kts 146°
2026-05-08 23:32 47.60181 3.32301 34985 ft 467 kts 146°
2026-05-08 23:32 47.54854 3.37825 34987 ft 468 kts 147°
2026-05-08 23:33 47.49378 3.42844 34981 ft 464 kts 150°
2026-05-08 23:33 47.43865 3.47759 34985 ft 463 kts 150°
2026-05-08 23:34 47.38379 3.52643 34984 ft 463 kts 150°
2026-05-08 23:34 47.32889 3.57520 34987 ft 460 kts 150°
2026-05-08 23:35 47.27417 3.62371 34989 ft 461 kts 150°
2026-05-08 23:35 47.21944 3.67215 34993 ft 458 kts 150°
2026-05-08 23:36 47.16497 3.72050 34987 ft 458 kts 150°
2026-05-08 23:36 47.11041 3.76862 34991 ft 457 kts 150°
2026-05-08 23:37 47.05642 3.81607 34992 ft 456 kts 150°
2026-05-08 23:37 47.00208 3.86367 34994 ft 456 kts 150°
2026-05-08 23:38 46.94782 3.91107 34993 ft 456 kts 150°
2026-05-08 23:38 46.89315 3.95870 34993 ft 456 kts 150°
2026-05-08 23:39 46.83872 4.00578 35000 ft 456 kts 150°
2026-05-08 23:39 46.78408 4.05300 34992 ft 456 kts 150°
2026-05-08 23:40 46.72965 4.10004 34996 ft 456 kts 150°
2026-05-08 23:40 46.67536 4.14687 34993 ft 456 kts 150°
2026-05-08 23:41 46.62078 4.19387 34989 ft 455 kts 150°
2026-05-08 23:41 46.56646 4.24055 34992 ft 455 kts 150°
2026-05-08 23:42 46.51203 4.28720 34990 ft 456 kts 150°
2026-05-08 23:42 46.45774 4.33364 34993 ft 456 kts 150°
2026-05-08 23:43 46.40322 4.38017 34988 ft 456 kts 150°
2026-05-08 23:43 46.34891 4.42641 34996 ft 455 kts 150°
2026-05-08 23:44 46.29456 4.47260 35001 ft 454 kts 150°
2026-05-08 23:44 46.24017 4.51872 35004 ft 453 kts 150°
2026-05-08 23:45 46.18592 4.56465 35003 ft 453 kts 150°
2026-05-08 23:45 46.13189 4.61025 35001 ft 454 kts 150°
2026-05-08 23:46 46.07859 4.65930 34999 ft 455 kts 146°
2026-05-08 23:46 46.02898 4.71544 34993 ft 455 kts 142°
2026-05-08 23:47 45.97998 4.77264 34986 ft 455 kts 142°
2026-05-08 23:47 45.93079 4.82984 34992 ft 454 kts 143°
2026-05-08 23:48 45.88209 4.88625 35000 ft 454 kts 143°
2026-05-08 23:48 45.83279 4.94290 35011 ft 454 kts 143°
2026-05-08 23:49 45.78345 4.99963 35002 ft 455 kts 143°
2026-05-08 23:49 45.73413 5.05636 35007 ft 456 kts 143°
2026-05-08 23:50 45.68483 5.11290 35013 ft 456 kts 143°
2026-05-08 23:50 45.63561 5.16928 35005 ft 456 kts 143°
2026-05-08 23:51 45.58628 5.22568 35018 ft 457 kts 144°
2026-05-08 23:51 45.53660 5.28229 35016 ft 458 kts 144°
2026-05-08 23:52 45.48677 5.33897 35029 ft 459 kts 144°
2026-05-08 23:52 45.43710 5.39532 35025 ft 460 kts 144°
2026-05-08 23:53 45.38713 5.45192 35024 ft 462 kts 144°
2026-05-08 23:53 45.33686 5.50868 35030 ft 463 kts 144°
2026-05-08 23:54 45.28647 5.56546 35039 ft 464 kts 144°
2026-05-08 23:55 45.21038 5.65093 35050 ft 466 kts 145°
2026-05-08 23:55 45.15961 5.70809 35068 ft 467 kts 145°
2026-05-08 23:56 45.10899 5.76491 35081 ft 468 kts 146°
2026-05-08 23:56 45.05802 5.82182 35089 ft 468 kts 145°
2026-05-08 23:57 45.00706 5.87854 35083 ft 469 kts 146°
2026-05-08 23:57 44.95574 5.93549 35094 ft 470 kts 146°
2026-05-08 23:58 44.90432 5.99242 35097 ft 470 kts 146°
2026-05-08 23:58 44.85301 6.04886 35098 ft 471 kts 146°
2026-05-08 23:59 44.80128 6.10565 35102 ft 472 kts 146°
2026-05-08 23:59 44.74956 6.16247 35100 ft 472 kts 146°
2026-05-09 00:00 44.69767 6.21936 35102 ft 473 kts 146°
2026-05-09 00:00 44.64619 6.27570 35094 ft 473 kts 146°
2026-05-09 00:01 44.59441 6.33223 35095 ft 474 kts 146°
2026-05-09 00:01 44.54242 6.38886 35097 ft 475 kts 146°
2026-05-09 00:02 44.49023 6.44556 35096 ft 474 kts 146°
2026-05-09 00:02 44.43829 6.50192 35088 ft 476 kts 146°
2026-05-09 00:03 44.38611 6.55837 35090 ft 476 kts 146°
2026-05-09 00:03 44.33365 6.61501 35101 ft 477 kts 146°
2026-05-09 00:04 44.28153 6.67119 35095 ft 477 kts 147°
2026-05-09 00:04 44.22897 6.72797 35095 ft 478 kts 147°
2026-05-09 00:05 44.17674 6.78411 35101 ft 479 kts 147°
2026-05-09 00:05 44.12399 6.84057 35101 ft 479 kts 147°
2026-05-09 00:06 44.07128 6.89682 35092 ft 479 kts 147°
2026-05-09 00:06 44.01848 6.95304 35062 ft 480 kts 147°
2026-05-09 00:07 43.96533 7.00947 35054 ft 483 kts 147°
2026-05-09 00:07 43.91183 7.06622 35081 ft 485 kts 147°
2026-05-09 00:08 43.85846 7.12248 35079 ft 486 kts 148°
2026-05-09 00:08 43.80475 7.17891 35084 ft 486 kts 148°
2026-05-09 00:09 43.75082 7.23572 35069 ft 488 kts 148°
2026-05-09 00:09 43.69694 7.29238 35059 ft 490 kts 149°
2026-05-09 00:10 43.64246 7.34915 35054 ft 490 kts 150°
2026-05-09 00:10 43.58568 7.39930 35056 ft 484 kts 156°
2026-05-09 00:11 43.52705 7.44507 35047 ft 486 kts 156°
2026-05-09 00:11 43.46815 7.49110 35048 ft 488 kts 157°
2026-05-09 00:12 43.40919 7.53721 35035 ft 489 kts 157°
2026-05-09 00:12 43.34985 7.58350 35037 ft 492 kts 157°
2026-05-09 00:13 43.29072 7.62946 35036 ft 492 kts 157°
2026-05-09 00:13 43.23126 7.67568 35029 ft 492 kts 158°
2026-05-09 00:14 43.17150 7.72225 35023 ft 495 kts 158°
2026-05-09 00:14 43.11188 7.76851 35020 ft 488 kts 158°
2026-05-09 00:14 43.08326 7.79072 35019 ft 471 kts 158°
2026-05-09 00:15 43.05529 7.81229 35017 ft 456 kts 159°
2026-05-09 00:15 43.00016 7.85421 35019 ft 454 kts 159°
2026-05-09 00:16 42.94500 7.89605 35020 ft 454 kts 159°
2026-05-09 00:16 42.89052 7.93747 34762 ft 448 kts 160°
2026-05-09 00:16 42.86302 7.95830 34254 ft 447 kts 159°
2026-05-09 00:17 42.83594 7.97874 33673 ft 447 kts 159°
2026-05-09 00:17 42.80885 7.99924 33175 ft 445 kts 159°
2026-05-09 00:17 42.78212 8.01943 32685 ft 442 kts 158°
2026-05-09 00:17 42.75535 8.03966 32105 ft 442 kts 158°
2026-05-09 00:18 42.72838 8.05998 31502 ft 442 kts 158°
2026-05-09 00:18 42.70190 8.07999 30943 ft 440 kts 157°
2026-05-09 00:18 42.67509 8.10024 30367 ft 439 kts 156°
2026-05-09 00:18 42.64862 8.12026 29771 ft 439 kts 156°
2026-05-09 00:19 42.62193 8.14045 29128 ft 438 kts 156°
2026-05-09 00:19 42.59571 8.16029 28583 ft 436 kts 156°
2026-05-09 00:19 42.56907 8.18045 28077 ft 432 kts 156°
2026-05-09 00:19 42.54331 8.19989 27606 ft 428 kts 156°
2026-05-09 00:20 42.51743 8.21937 27107 ft 425 kts 156°
2026-05-09 00:20 42.49142 8.23893 26621 ft 422 kts 156°
2026-05-09 00:20 42.46609 8.25799 26124 ft 418 kts 156°
2026-05-09 00:20 42.44102 8.27682 25624 ft 416 kts 156°
2026-05-09 00:21 42.41571 8.29579 25130 ft 413 kts 156°
2026-05-09 00:21 42.39056 8.31466 24633 ft 410 kts 155°
2026-05-09 00:21 42.36578 8.33321 24170 ft 407 kts 155°
2026-05-09 00:21 42.34126 8.35157 23735 ft 403 kts 155°
2026-05-09 00:22 42.31699 8.36974 23274 ft 400 kts 156°
2026-05-09 00:22 42.29279 8.38782 22731 ft 395 kts 155°
2026-05-09 00:22 42.26902 8.40557 21897 ft 389 kts 155°
2026-05-09 00:22 42.24558 8.42303 20995 ft 387 kts 155°
2026-05-09 00:23 42.22220 8.44040 20410 ft 386 kts 155°
2026-05-09 00:23 42.19890 8.45776 19986 ft 383 kts 155°
2026-05-09 00:23 42.17557 8.47511 19594 ft 380 kts 155°
2026-05-09 00:23 42.15250 8.49225 19169 ft 378 kts 155°
2026-05-09 00:24 42.12972 8.50915 18722 ft 377 kts 155°
2026-05-09 00:24 42.10670 8.52623 18295 ft 376 kts 154°
2026-05-09 00:24 42.08370 8.54329 17885 ft 374 kts 155°
2026-05-09 00:24 42.06100 8.56009 17499 ft 371 kts 155°
2026-05-09 00:25 42.03871 8.57657 17166 ft 368 kts 154°
2026-05-09 00:25 42.01625 8.59321 16812 ft 365 kts 154°
2026-05-09 00:25 41.99423 8.60947 16443 ft 362 kts 154°
2026-05-09 00:25 41.97223 8.62572 16105 ft 359 kts 154°
2026-05-09 00:26 41.95043 8.64184 15751 ft 357 kts 154°
2026-05-09 00:26 41.92870 8.65789 15394 ft 355 kts 154°
2026-05-09 00:26 41.90721 8.67386 15046 ft 352 kts 154°
2026-05-09 00:26 41.88598 8.68960 14654 ft 349 kts 154°
2026-05-09 00:27 41.86474 8.70520 14302 ft 346 kts 154°
2026-05-09 00:27 41.84371 8.72064 13893 ft 344 kts 154°
2026-05-09 00:27 41.82269 8.73603 13509 ft 342 kts 153°
2026-05-09 00:27 41.80170 8.75143 13128 ft 340 kts 153°
2026-05-09 00:28 41.78143 8.76721 12777 ft 338 kts 147°
2026-05-09 00:28 41.76332 8.78716 12402 ft 337 kts 136°
2026-05-09 00:28 41.74790 8.81074 12028 ft 336 kts 130°
2026-05-09 00:28 41.73344 8.83517 11668 ft 333 kts 129°
2026-05-09 00:29 41.71929 8.85938 11303 ft 332 kts 129°
2026-05-09 00:29 41.70507 8.88360 10932 ft 330 kts 129°
2026-05-09 00:29 41.69089 8.90758 10589 ft 327 kts 129°
2026-05-09 00:29 41.67683 8.93129 10238 ft 325 kts 129°
2026-05-09 00:30 41.66286 8.95479 9907 ft 322 kts 129°
2026-05-09 00:30 41.64897 8.97806 9594 ft 318 kts 129°
2026-05-09 00:30 41.63541 9.00078 9474 ft 310 kts 129°
2026-05-09 00:30 41.62216 9.02293 9309 ft 301 kts 129°
2026-05-09 00:31 41.60925 9.04453 9171 ft 293 kts 129°
2026-05-09 00:31 41.59666 9.06555 8919 ft 290 kts 129°
2026-05-09 00:31 41.58398 9.08667 8671 ft 289 kts 129°
2026-05-09 00:31 41.57144 9.10753 8384 ft 287 kts 128°
2026-05-09 00:32 41.55906 9.12815 8064 ft 285 kts 128°
2026-05-09 00:32 41.54655 9.14896 7750 ft 284 kts 128°
2026-05-09 00:32 41.53434 9.16934 7475 ft 282 kts 128°
2026-05-09 00:32 41.52206 9.18981 7177 ft 280 kts 128°
2026-05-09 00:33 41.50996 9.20995 6830 ft 279 kts 128°
2026-05-09 00:33 41.49786 9.23006 6495 ft 277 kts 128°
2026-05-09 00:33 41.48650 9.25027 6230 ft 274 kts 120°
2026-05-09 00:33 41.47920 9.27351 5924 ft 271 kts 103°
2026-05-09 00:34 41.47578 9.29800 5616 ft 269 kts 96°
2026-05-09 00:34 41.47731 9.32248 5265 ft 266 kts 69°
2026-05-09 00:34 41.48738 9.34283 5005 ft 261 kts 40°
2026-05-09 00:34 41.50314 9.35444 4965 ft 262 kts 14°
2026-05-09 00:35 41.52111 9.35545 4928 ft 256 kts 352°
2026-05-09 00:35 41.53852 9.35130 4776 ft 249 kts 349°
2026-05-09 00:35 41.55512 9.34694 4567 ft 236 kts 349°
2026-05-09 00:35 41.57066 9.34293 4439 ft 219 kts 350°
2026-05-09 00:36 41.58485 9.33937 4409 ft 199 kts 350°
2026-05-09 00:36 41.59819 9.33609 4238 ft 191 kts 350°
2026-05-09 00:36 41.61132 9.33288 3843 ft 192 kts 351°
2026-05-09 00:36 41.62434 9.32953 3532 ft 190 kts 343°
2026-05-09 00:37 41.63518 9.31988 3476 ft 189 kts 302°
2026-05-09 00:37 41.63877 9.30405 3520 ft 170 kts 268°
2026-05-09 00:37 41.63525 9.28925 3504 ft 170 kts 235°
2026-05-09 00:37 41.62751 9.27724 3529 ft 172 kts 226°
2026-05-09 00:38 41.61916 9.26561 3519 ft 173 kts 226°
2026-05-09 00:38 41.61076 9.25385 3379 ft 173 kts 226°
2026-05-09 00:38 41.60261 9.24223 3147 ft 172 kts 227°
2026-05-09 00:38 41.59451 9.23055 2898 ft 170 kts 227°
2026-05-09 00:39 41.58668 9.21919 2609 ft 161 kts 227°
2026-05-09 00:39 41.57939 9.20859 2348 ft 150 kts 227°
2026-05-09 00:39 41.57263 9.19877 2124 ft 141 kts 227°
2026-05-09 00:39 41.56607 9.18921 1915 ft 138 kts 227°
2026-05-09 00:40 41.55959 9.17978 1712 ft 138 kts 228°
2026-05-09 00:40 41.55310 9.17032 1502 ft 137 kts 227°
2026-05-09 00:40 41.54670 9.16097 1292 ft 137 kts 227°
2026-05-09 00:41 41.53393 9.14250 881 ft 136 kts 225°
2026-05-09 00:41 41.52749 9.13339 647 ft 135 kts 227°
2026-05-09 00:41 41.52109 9.12425 480 ft 134 kts 226°
2026-05-09 00:41 41.51479 9.11511 261 ft 133 kts 227°
2026-05-09 00:42 41.50855 9.10606 84 ft 133 kts 227°
2026-05-09 00:42 41.50233 9.09722 341 ft 132 kts 225°
2026-05-09 00:42 41.49577 9.08841 947 ft 138 kts 226°
2026-05-09 00:42 41.48932 9.07879 1595 ft 147 kts 229°
2026-05-09 00:43 41.48233 9.06808 2298 ft 161 kts 229°
2026-05-09 00:43 41.47454 9.05636 2990 ft 181 kts 227°
2026-05-09 00:43 41.46585 9.04352 3706 ft 195 kts 227°
2026-05-09 00:43 41.45638 9.02971 4266 ft 212 kts 227°
2026-05-09 00:44 41.44481 9.01693 4733 ft 220 kts 201°
2026-05-09 00:44 41.42998 9.01539 4938 ft 215 kts 162°
2026-05-09 00:44 41.41754 9.02552 4787 ft 210 kts 127°
2026-05-09 00:44 41.41172 9.04296 4460 ft 211 kts 94°
2026-05-09 00:45 41.41347 9.06216 4176 ft 209 kts 75°
2026-05-09 00:45 41.41714 9.08089 3990 ft 210 kts 75°
2026-05-09 00:45 41.42079 9.09982 3974 ft 212 kts 75°
2026-05-09 00:45 41.42435 9.11891 3972 ft 212 kts 76°
2026-05-09 00:46 41.42783 9.13798 3968 ft 212 kts 76°
2026-05-09 00:46 41.43125 9.15701 3974 ft 212 kts 76°
2026-05-09 00:46 41.43462 9.17600 3949 ft 212 kts 76°
2026-05-09 00:46 41.43802 9.19520 3945 ft 212 kts 76°
2026-05-09 00:47 41.44141 9.21442 3953 ft 213 kts 76°
2026-05-09 00:47 41.44480 9.23369 3958 ft 213 kts 76°
2026-05-09 00:47 41.44815 9.25277 3967 ft 213 kts 76°
2026-05-09 00:47 41.45154 9.27209 3972 ft 212 kts 76°
2026-05-09 00:48 41.45487 9.29113 3964 ft 212 kts 76°
2026-05-09 00:48 41.45820 9.31022 3957 ft 212 kts 76°
2026-05-09 00:48 41.46155 9.32948 3944 ft 212 kts 76°
2026-05-09 00:48 41.46517 9.34849 3939 ft 212 kts 67°
2026-05-09 00:49 41.47425 9.36315 3927 ft 208 kts 25°
2026-05-09 00:49 41.48812 9.36662 3746 ft 206 kts 353°
2026-05-09 00:49 41.50232 9.36269 3504 ft 210 kts 347°
2026-05-09 00:49 41.51648 9.35815 3469 ft 211 kts 348°
2026-05-09 00:50 41.53059 9.35398 3457 ft 199 kts 348°
2026-05-09 00:50 41.54374 9.35033 3547 ft 190 kts 349°
2026-05-09 00:50 41.55659 9.34693 3497 ft 188 kts 350°
2026-05-09 00:50 41.56941 9.34364 3475 ft 188 kts 350°
2026-05-09 00:51 41.58226 9.34040 3469 ft 188 kts 350°
2026-05-09 00:51 41.59512 9.33718 3468 ft 188 kts 350°
2026-05-09 00:51 41.60801 9.33396 3463 ft 187 kts 350°
2026-05-09 00:51 41.62080 9.33075 3461 ft 187 kts 350°
2026-05-09 00:52 41.63283 9.32502 3483 ft 183 kts 324°
2026-05-09 00:52 41.63948 9.31106 3461 ft 182 kts 284°
2026-05-09 00:52 41.63809 9.29444 3461 ft 184 kts 245°
2026-05-09 00:52 41.63028 9.28087 3484 ft 184 kts 227°
2026-05-09 00:53 41.62146 9.26852 3480 ft 183 kts 225°
2026-05-09 00:53 41.61250 9.25610 3395 ft 183 kts 226°
2026-05-09 00:53 41.60387 9.24391 3155 ft 182 kts 226°
2026-05-09 00:53 41.60194 9.24115 3096 ft 182 kts 226°
2026-05-09 00:55 41.59980 9.23808 3031 ft 182 kts 227°
2026-05-09 00:55 41.59127 9.22578 2757 ft 183 kts 227°
2026-05-09 00:56 41.58264 9.21325 2465 ft 177 kts 227°
2026-05-09 00:56 41.57460 9.20155 2193 ft 166 kts 227°
2026-05-09 00:56 41.56710 9.19066 1933 ft 155 kts 227°
2026-05-09 00:56 41.56002 9.18037 1688 ft 144 kts 228°
2026-05-09 00:57 41.55340 9.17072 1479 ft 137 kts 228°
2026-05-09 00:57 41.54705 9.16146 1282 ft 136 kts 227°
2026-05-09 00:57 41.54061 9.15208 1079 ft 135 kts 227°
2026-05-09 00:57 41.53420 9.14288 882 ft 135 kts 226°
2026-05-09 00:58 41.52777 9.13399 682 ft 134 kts 227°
2026-05-09 00:58 41.52151 9.12496 498 ft 132 kts 227°
2026-05-09 00:58 41.51528 9.11594 300 ft 132 kts 227°
2026-05-09 00:58 41.50906 9.10683 107 ft 131 kts 227°
2026-05-09 00:59 41.50361 9.09893 70 ft 81 kts 227°
2026-05-09 00:59 41.50113 9.09534 65 ft 43 kts 227°
2026-05-09 00:59 41.49931 9.09327 60 ft 18 kts 178°
2026-05-09 00:59 41.49950 9.09296 59 ft 9 kts 23°
2026-05-09 01:00 41.50000 9.09364 61 ft 16 kts 48°
2026-05-09 01:00 41.50130 9.09557 66 ft 32 kts 47°
2026-05-09 01:00 41.50170 9.09727 68 ft 18 kts 135°
2026-05-09 01:00 41.50083 9.09811 68 ft 14 kts 175°
2026-05-09 01:01 41.50018 9.09758 67 ft 9 kts 203°
2026-05-09 01:01 41.49986 9.09772 68 ft 5 kts 138°
2026-05-09 01:01 41.49968 9.09794 69 ft 5 kts 137°
2026-05-09 01:01 41.49965 9.09798 69 ft 0 kts 137°